Location: Chippewa Lake
(41.0698°N, 81.9010°W)
Time: 02:15:09
(UTC+00:00)

Cosmos 990 Rocket - Pass Details

Date: 09 May 2021
Orbit: 747 x 769 km, 74.0° (Epoch: 24 June)

Event Time Altitude Azimuth Distance (km) Brightness Sun altitude
Exits shadow 04:20:10 62° 355° (N) 859 4.3 -29.7°
Drops below altitude 10° 04:24:35 10° 17° (NNE) 2,312 7.1 -29.9°
Sets 04:26:59 0° 19° (NNE) 3,245 8.0 -30.0°
